Simultaneous Nadir Overpasses (SNOs) Predictions

Prediction of SNOs between GOES-17 and FY3D Satellite Orbit:

Table of predicted SNOs for the next 14.0 days since TLE Epoch: 3/2/2024
Index Date Time (GOES-17) GOES-17 Lat,Lon FY3D Lat,Lon Distance(km) Time Diff (sec)
1 03/02/2024 09:36:46 0.01,-104.70 0.74,-107.91 365.88 80
2 03/03/2024 09:15:36 0.01,-104.70 -0.27,-103.42 145.33 80
3 03/04/2024 21:37:55 -0.02,-104.68 -0.96,-108.78 468.65 80
4 03/05/2024 21:22:05 -0.02,-104.67 0.05,-104.30 42.50 80
5 03/08/2024 09:25:47 0.02,-104.70 0.13,-105.15 51.78 80
6 03/09/2024 09:04:38 0.02,-104.69 -0.89,-100.67 459.37 80
7 03/10/2024 21:26:56 -0.02,-104.67 -0.33,-106.03 154.43 80
8 03/11/2024 21:11:06 -0.02,-104.67 0.70,-101.54 357.00 80
9 03/13/2024 09:33:17 0.02,-104.70 0.54,-106.87 247.79 80
10 03/14/2024 09:12:07 0.03,-104.70 -0.48,-102.38 263.59 80
11 03/15/2024 21:34:25 -0.03,-104.67 -0.72,-107.74 350.33 80
